Dewpoint
30 26 24 19 23 25 25 26 26 27 27 24 22 19 20 19 22 25 27 30 28 23 22 24 26 27 27 27 27 27 27 28 29 29 29 30 29 29 29 28 26 25 25 29 29 28 30 30 29 30 29 29 29 28 25 23 23 20 18 17 15 16 17 15 12 12 13 13 14 12 12 11 10 12 14 11 12 13 15 16 15 16 16 15 15 15
30 24 25 24 26 26 26 28 28 27 25 23 20 19 20 22 19 24 26 30 30 21 22 24 24 23 23 24 26 27 28 27 28 29 29 30 30 29 29 29 27 25 29 28 26 28 29 29 30 29 28 31 27 27 25 23 22 19 19 16 16 16 18 13 13 13 13 14 15 12 13 11 11 10 11 11 12 14 15 15 14 15 15 14 14 15
24 24 24 27 27 29 27 27 27 25 22 23 18 18 16 20 24 25 26 29 28 24 23 24 23 24 24 24 24 27 27 27 28 29 30 29 29 29 29 29 27 25 26 27 25 27 26 29 29 28 28 27 28 27 25 23 20 18 19 16 17 18 18 14 15 15 12 14 14 13 13 12 11 10 12 12 15 14 13 13 13 14 14 14 14 13
21 24 27 28 29 26 25 26 25 24 24 21 20 21 15 21 16 17 23 25 28 23 21 23 24 24 25 27 28 26 27 28 30 31 31 30 29 29 29 28 26 25 27 27 25 24 24 26 27 28 27 27 27 26 24 22 18 18 22 16 17 18 18 13 15 18 14 17 16 15 16 15 12 11 15 12 13 12 12 12 11 12 13 14 13 13
22 25 26 30 27 25 23 25 24 23 20 22 21 17 17 18 19 17 20 24 22 22 25 23 21 20 22 24 26 28 29 30 31 32 31 31 31 31 31 29 27 25 27 27 25 25 26 26 27 27 28 27 26 25 24 22 18 17 19 18 17 19 18 13 17 13 15 16 13 13 15 14 13 12 12 12 12 12 13 12 10 10 13 13 13 12
23 25 30 28 28 26 24 23 23 23 21 21 21 21 19 21 20 22 23 20 20 19 24 22 18 17 20 21 25 27 28 28 30 30 31 32 31 31 30 30 27 29 28 27 25 26 27 27 28 27 26 26 25 24 25 22 19 18 20 18 17 19 19 12 13 15 16 13 11 11 12 10 9 9 10 11 11 11 10 10 9 10 11 12 12 11
25 27 28 27 24 24 24 23 23 23 19 19 23 22 22 20 20 20 20 18 14 12 17 24 15 14 20 20 23 26 26 27 28 29 31 31 31 31 31 30 26 26 26 28 27 27 28 28 28 26 25 26 25 25 26 21 20 18 21 18 18 19 19 14 13 14 16 12 11 11 12 12 10 10 10 11 12 11 11 11 9 10 10 11 10 10
28 25 26 25 24 23 24 23 23 21 19 17 20 21 18 18 17 18 16 15 15 22 23 25 19 15 16 19 21 23 25 26 27 29 30 31 31 32 32 31 28 27 27 27 26 27 28 28 27 25 25 26 25 26 25 21 20 18 20 19 18 19 19 13 14 15 14 14 12 11 13 14 10 11 10 11 11 11 13 9 9 9 10 10 10 10
23 24 26 24 23 23 22 22 23 23 20 21 22 23 20 21 19 21 17 17 18 17 15 20 23 15 11 18 20 23 22 23 25 27 28 29 29 32 33 33 31 28 28 27 28 29 29 29 28 26 25 25 26 26 25 20 18 19 21 20 18 17 16 13 13 17 13 17 13 12 13 10 12 13 13 13 12 11 11 8 8 8 8 8 9 9
23 25 26 25 23 21 23 24 25 24 23 24 24 21 21 24 23 22 19 19 17 15 11 16 20 13 17 20 20 22 22 23 24 25 26 26 27 31 33 33 32 29 28 28 29 29 30 29 27 26 26 26 25 25 28 22 19 19 20 19 18 17 15 13 12 13 13 13 15 11 13 10 10 12 11 10 8 9 10 8 7 7 8 8 8 8
24 32 29 24 23 24 24 26 25 25 25 26 26 24 22 21 21 21 20 17 14 6 13 19 20 18 15 19 19 19 21 23 22 24 26 28 29 31 33 33 32 29 28 29 30 30 30 30 27 26 25 25 25 24 24 22 19 19 20 17 15 16 15 12 12 13 13 13 12 12 13 11 10 11 11 9 8 9 8 7 7 7 7 8 8 8
24 26 24 25 28 28 26 25 28 26 28 25 23 22 20 17 19 19 18 15 7 6 13 18 20 19 12 17 20 23 22 20 23 24 27 28 29 30 32 32 31 29 28 29 30 30 30 29 27 25 25 25 23 23 23 22 20 20 19 16 15 16 14 11 13 14 13 12 13 12 13 11 11 11 11 9 8 8 8 7 7 7 7 6 8 7
20 22 25 26 30 24 23 21 23 25 25 24 22 20 16 4 10 4 12 9 5 5 13 18 20 16 17 20 23 24 25 24 24 28 28 28 29 30 31 32 31 28 27 29 30 30 30 28 26 24 25 24 23 22 22 22 19 18 18 16 15 15 14 11 13 13 12 11 11 12 13 11 13 12 12 10 9 9 8 7 6 6 5 6 7 6
18 23 24 25 22 24 23 19 19 18 21 22 21 15 9 4 0 3 1 8 6 14 18 19 18 17 18 20 23 23 25 25 27 28 28 29 29 30 31 32 29 28 27 29 30 30 29 28 26 25 24 24 23 22 22 20 19 18 18 15 17 15 14 12 13 12 11 11 12 12 13 11 11 11 12 9 9 9 8 8 7 6 6 6 6 6
9 13 16 23 19 24 23 20 21 20 21 21 22 19 11 7 6 4 6 2 3 12 16 18 10 9 12 19 22 24 25 26 28 28 28 29 30 30 31 29 28 27 27 30 30 29 29 28 25 24 24 23 22 21 21 18 16 17 16 16 14 15 13 12 13 12 11 11 11 12 13 12 12 12 11 9 12 9 8 7 7 6 5 6 6 6
18 14 17 25 21 23 22 23 25 23 22 23 22 22 20 12 16 10 5 7 6 12 15 10 11 13 16 24 25 27 27 29 29 30 30 31 31 31 32 32 29 28 27 30 30 29 28 27 25 24 23 23 22 22 20 18 16 16 16 15 14 15 13 12 15 11 12 10 12 12 12 11 15 14 11 11 10 8 8 7 6 5 5 6 6 5
17 13 21 28 25 20 21 24 23 23 15 19 22 15 18 21 19 10 16 18 16 7 12 9 18 21 22 22 25 26 27 28 28 28 29 31 32 31 32 33 30 28 27 30 30 29 28 26 25 24 23 23 23 21 18 16 15 15 15 14 13 15 13 12 14 11 12 10 11 12 12 11 10 10 8 7 7 7 7 7 6 5 5 5 5 7
8 11 21 23 21 26 24 24 25 24 23 21 16 20 24 23 20 16 11 5 -0 5 10 14 13 18 18 14 22 23 24 26 26 26 27 29 31 32 32 33 31 28 27 29 30 30 28 25 24 24 23 22 21 20 18 15 16 16 15 14 13 15 12 12 11 11 11 9 11 12 12 10 10 10 8 7 7 7 6 5 5 5 5 4 5 7
17 10 19 25 23 25 24 22 22 25 27 22 21 21 17 10 13 16 8 6 6 3 9 14 11 16 16 19 20 21 20 22 25 26 27 28 30 31 32 32 29 28 28 27 29 29 27 25 24 23 22 22 21 23 17 17 16 16 15 16 14 13 13 13 13 13 11 10 12 13 12 10 10 9 8 8 8 6 5 4 4 4 4 3 5 5
19 6 16 22 23 24 20 22 15 19 25 26 25 22 22 21 10 11 11 7 12 8 8 13 9 15 17 19 18 19 21 24 25 26 27 29 30 31 32 31 28 27 27 27 28 29 27 25 24 23 22 21 21 21 19 17 16 15 15 14 15 16 13 12 11 11 9 10 11 12 10 8 9 9 7 7 6 5 4 3 4 3 2 3 5 3
18 14 5 16 22 20 17 20 16 20 14 18 20 16 19 14 19 17 14 14 13 2 2 6 12 16 18 22 21 20 20 23 26 27 28 29 30 31 32 31 29 27 27 28 28 29 27 25 24 24 22 22 22 23 21 18 14 15 16 13 14 13 13 12 12 12 10 11 11 11 8 8 7 6 6 5 5 5 3 2 4 2 2 4 2 2
14 17 11 16 14 17 18 22 21 21 21 19 19 14 19 13 12 9 13 11 14 13 11 7 13 17 19 22 22 22 23 25 27 28 29 29 29 31 32 30 28 28 28 28 27 27 27 26 25 23 23 22 22 21 18 18 16 14 14 14 14 15 13 12 12 12 11 10 11 8 8 6 5 5 4 3 4 5 3 2 2 1 3 1 2 2
18 18 15 14 12 11 16 19 21 22 22 22 21 18 17 13 11 7 9 12 9 11 8 10 11 19 24 25 25 25 26 27 28 28 28 28 28 31 33 30 28 28 28 28 26 27 27 26 25 23 22 21 21 20 18 16 14 14 14 13 14 14 13 13 12 12 11 10 9 7 7 5 4 4 3 3 3 2 2 2 1 3 2 2 1 2
27 12 7 11 14 15 18 21 22 21 22 20 20 20 19 14 16 18 13 7 11 10 12 11 14 19 21 25 27 27 27 28 28 27 26 27 28 31 31 27 27 28 28 26 26 27 27 26 25 24 22 22 22 20 17 16 15 15 15 15 15 14 13 13 13 12 10 9 7 7 5 3 3 2 2 2 2 1 1 1 1 3 2 2 2 1
9 11 11 5 3 9 11 13 17 19 20 19 16 18 19 16 14 11 12 10 13 11 17 15 13 15 18 26 27 27 25 24 23 24 26 27 29 31 30 27 27 27 27 26 26 27 26 26 25 23 23 22 22 21 18 15 14 13 13 14 13 15 14 13 13 11 10 9 6 6 4 2 2 1 1 2 2 1 1 1 0 1 2 2 1 1
12 14 8 -1 -5 -2 -2 -1 3 7 7 17 21 21 19 16 15 13 12 11 11 14 18 11 14 18 18 22 23 22 22 21 22 23 26 29 30 31 28 27 27 28 26 26 26 26 26 27 26 24 23 23 22 20 18 15 13 13 13 13 13 13 13 12 12 11 9 8 7 6 3 2 2 1 1 2 2 1 1 1 1 1 1 2 1 1
12 18 16 11 7 7 9 11 13 16 14 9 10 17 15 17 14 10 13 11 14 12 14 19 19 18 18 19 20 19 19 20 21 22 24 27 31 30 28 27 27 27 27 26 26 26 26 25 25 23 23 22 21 20 18 15 14 13 12 12 13 14 14 12 11 10 8 7 7 5 2 2 1 0 0 1 1 1 1 1 1 1 1 2 1 1
9 9 15 17 14 14 13 13 14 17 14 16 15 16 14 17 16 16 17 16 18 10 15 18 21 20 20 19 18 19 19 20 21 22 24 27 31 30 28 28 30 27 26 26 25 26 27 26 25 23 22 21 21 20 18 16 14 12 11 11 13 14 13 14 11 9 8 7 6 4 2 2 1 0 1 2 1 1 1 1 1 1 1 2 1 1
9 7 8 13 13 18 18 17 17 18 17 17 16 16 15 16 16 17 18 19 19 14 15 16 20 18 18 18 19 19 20 21 22 23 25 28 31 29 27 27 27 26 26 26 26 26 26 26 25 23 22 21 20 19 16 14 13 13 12 11 13 13 11 12 10 7 7 6 4 2 2 1 -0 0 0 1 1 0 0 1 1 1 1 2 2 2
10 9 9 11 15 16 16 17 17 17 18 19 18 18 18 17 18 20 20 19 20 20 20 20 20 20 20 20 20 21 22 23 24 26 29 31 31 30 28 27 27 26 26 26 26 26 26 26 25 23 21 20 19 18 16 14 11 12 12 12 12 12 12 12 7 6 5 3 2 1 1 -0 -1 -1 -1 -1 -0 -0 0 0 1 1 1 1 1 2
8 10 17 12 8 15 13 17 17 19 19 17 16 17 19 19 18 19 18 19 20 20 21 21 20 21 22 22 23 24 24 26 29 29 30 31 31 29 28 28 28 27 26 26 26 26 26 25 24 22 21 20 19 17 16 14 13 13 12 12 11 11 12 9 5 4 1 1 -1 -1 -2 -3 -3 -3 -2 -1 -0 0 1 1 1 1 1 1 1 2
8 11 8 7 8 12 13 17 16 15 17 17 16 17 19 20 16 19 17 20 19 19 20 18 18 20 21 22 26 26 27 28 27 28 29 31 30 29 28 29 28 27 26 26 26 26 26 25 24 21 20 19 19 17 14 13 11 12 10 11 11 11 12 7 3 2 -1 -1 -3 -4 -4 -4 -3 -2 -1 0 1 1 1 2 2 2 1 1 2 2
8 9 8 8 8 8 11 16 16 15 10 5 10 15 20 22 21 21 21 22 22 21 16 17 19 17 17 21 22 22 24 25 27 28 30 30 29 29 29 29 29 27 26 26 26 26 26 25 24 22 21 19 18 17 15 13 11 10 11 11 11 11 7 3 1 -1 -3 -5 -5 -5 -4 -3 -2 -1 -0 1 2 2 2 2 2 2 2 2 2 2
10 11 11 11 7 9 11 13 13 1 -5 -4 13 22 21 15 19 19 20 21 23 22 21 20 18 19 22 22 23 23 24 24 26 29 31 32 32 30 30 29 28 27 26 26 26 27 26 25 24 22 20 19 19 16 14 13 9 10 13 13 11 8 5 -0 -2 -4 -6 -5 -5 -4 -4 -2 -1 -0 1 2 2 2 2 2 2 2 2 2 2 2
13 10 9 7 9 11 11 11 8 -11 0 17 22 23 21 18 18 20 21 22 22 24 24 23 23 23 23 24 24 25 25 27 30 32 33 33 31 32 31 29 27 27 27 27 26 26 26 24 22 21 20 18 16 15 12 12 10 12 11 9 8 7 1 -2 -4 -6 -6 -5 -5 -4 -3 -2 -0 0 2 2 3 3 2 2 2 2 2 3 2 1
11 11 7 14 6 7 6 2 -6 3 12 16 13 23 26 24 23 22 22 23 25 24 24 23 23 23 23 24 24 25 27 30 30 31 32 33 32 32 30 30 29 28 27 27 27 26 25 23 22 20 18 19 17 15 11 8 9 6 5 8 7 4 -1 -3 -6 -7 -6 -5 -5 -3 -2 -1 0 1 2 3 3 3 3 3 2 2 2 3 2 1
16 9 8 11 9 4 3 5 10 12 6 11 18 22 25 18 22 19 13 17 17 23 24 22 22 22 23 24 26 28 28 29 29 30 31 31 30 30 31 30 29 28 29 28 28 27 26 25 23 20 19 18 16 13 11 8 7 5 5 4 2 0 -3 -6 -6 -6 -5 -4 -3 -2 -2 -1 1 2 3 3 3 3 3 3 3 2 3 2 1 1
18 11 15 4 7 7 8 10 8 6 -4 10 18 23 27 27 25 24 21 22 20 21 23 22 22 21 23 25 26 26 28 27 23 22 28 28 29 29 28 28 27 27 28 27 26 26 25 23 21 19 18 15 14 11 9 6 5 3 3 3 0 -2 -4 -6 -6 -5 -4 -3 -3 -2 -1 0 1 2 3 3 2 3 3 3 3 3 3 2 2 1
19 17 13 9 8 9 6 3 0 -2 6 11 12 17 26 28 27 24 17 17 21 22 23 22 22 23 24 25 25 27 27 24 22 22 27 29 29 29 29 29 28 28 28 27 27 26 24 21 19 17 16 13 13 10 8 4 3 3 2 1 -1 -3 -5 -6 -5 -4 -3 -3 -2 -1 -0 1 2 3 3 2 2 2 2 3 3 3 3 2 2 2
15 11 11 12 10 9 3 5 6 4 9 15 19 23 27 27 24 18 10 10 19 22 25 26 25 25 25 26 26 27 24 24 22 22 27 29 30 30 30 29 29 28 27 27 27 26 23 20 17 15 15 14 13 10 5 4 3 3 2 1 -2 -3 -5 -5 -4 -3 -2 -2 -1 -1 1 2 3 3 2 2 1 1 2 1 2 2 2 2 2 3
13 13 12 15 7 11 15 8 4 12 17 19 19 20 29 27 20 9 8 11 13 23 25 27 27 27 26 25 26 25 28 26 25 26 28 26 28 29 29 29 30 29 28 27 27 26 22 19 18 18 16 16 13 7 4 4 4 4 3 -0 -2 -2 -4 -3 -2 -2 -1 -1 -0 1 1 2 2 1 0 1 1 1 -1 -1 1 1 0 1 3 3
5 9 12 7 9 11 12 9 13 12 16 20 25 29 29 17 8 11 16 17 18 16 17 23 23 23 23 24 25 26 26 28 30 31 31 29 30 30 30 30 28 27 28 27 26 24 22 20 19 19 17 16 11 7 5 5 5 4 2 -0 -2 -2 -3 -2 -1 -1 -0 0 1 1 1 1 2 0 -0 -1 -1 -2 -2 -1 -2 -3 -1 1 2 3
12 11 9 8 12 10 9 8 8 4 13 25 30 27 26 13 17 15 14 16 19 18 19 19 21 22 24 24 26 27 27 29 31 32 32 31 30 30 29 29 28 28 27 26 25 24 22 20 18 18 17 16 11 5 4 6 6 5 3 1 0 -2 -1 -1 -0 0 0 1 -1 -2 -2 -2 -2 -2 -1 -2 -2 -3 -4 -3 -4 -4 -2 1 3 4
15 6 4 9 15 5 7 7 7 13 15 26 16 13 22 20 17 17 19 18 18 20 19 19 20 23 24 25 25 26 29 30 31 31 32 31 30 30 29 29 29 28 27 27 26 24 22 21 19 18 18 15 10 6 6 7 8 7 5 3 -1 -1 0 -0 0 0 -0 -2 -2 -3 -4 -3 -3 -3 -3 -3 -3 -3 -6 -5 -5 -4 -3 1 4 5
16 16 15 7 13 11 10 17 18 16 24 28 21 16 15 17 21 21 21 20 20 20 20 21 21 22 25 26 27 28 29 31 31 31 31 32 31 30 29 29 29 29 28 27 26 24 22 22 21 19 18 14 10 7 6 7 10 10 7 3 2 2 0 -0 -1 -3 -5 -5 -5 -6 -6 -5 -5 -4 -4 -5 -4 -6 -5 -6 -7 -5 -1 2 4 5
21 17 19 13 18 18 19 18 18 16 16 16 24 24 21 21 21 22 22 20 21 21 21 21 22 23 25 27 28 29 30 31 32 32 31 31 31 30 30 30 29 29 28 27 26 24 23 23 23 21 20 15 11 8 9 9 10 12 9 3 3 2 0 -1 -4 -6 -6 -7 -7 -7 -7 -8 -7 -5 -4 -6 -6 -6 -6 -6 -6 -3 1 4 5 6
18 20 17 15 19 11 13 16 18 18 19 19 19 18 20 22 21 20 19 20 20 21 21 23 24 25 26 29 29 29 29 32 32 32 32 31 31 30 30 30 30 29 28 27 27 25 24 23 23 22 20 18 13 11 10 10 9 10 6 3 3 2 0 -2 -5 -6 -7 -8 -9 -8 -7 -7 -6 -5 -7 -7 -6 -6 -5 -6 -6 -1 3 5 6 6
19 21 17 18 16 13 13 11 14 15 16 16 17 17 17 17 18 18 20 20 20 21 23 24 26 28 29 29 31 31 31 32 32 32 32 32 32 31 30 30 30 29 29 28 27 25 25 24 23 22 21 20 17 13 12 11 10 9 6 4 4 3 -0 -3 -4 -7 -10 -8 -8 -8 -7 -7 -1 -3 -7 -6 -6 -6 -4 -5 -5 0 4 5 6 7
17 16 18 18 16 17 17 16 17 17 16 16 17 17 19 19 19 19 20 21 23 25 26 29 30 30 31 30 32 32 32 32 32 32 32 32 32 31 31 30 30 30 29 28 27 25 25 24 23 23 22 21 20 15 13 13 11 10 7 5 5 2 -1 -3 -3 -5 -10 -11 -9 -10 -3 -6 -6 -7 -8 -7 -7 -7 -7 -6 -1 3 6 8 10 11
18 18 18 14 17 16 14 11 9 11 10 7 8 10 14 19 21 21 21 22 23 24 25 24 24 28 30 32 32 33 32 31 31 31 32 32 32 32 31 30 30 29 29 29 28 26 25 24 24 24 23 22 21 18 15 14 12 9 8 7 4 2 -1 -3 -5 -7 -8 -9 -11 -11 -8 -5 -7 -10 -7 -9 -8 -7 -8 1 9 8 7 8 11 12
15 14 16 16 16 13 10 12 12 13 12 12 12 14 16 17 20 20 20 21 22 23 24 25 25 26 27 29 31 31 31 31 31 31 31 32 32 32 32 31 30 29 29 28 26 24 24 25 24 24 24 23 22 19 17 15 14 9 8 5 4 3 0 -3 -4 -5 -8 -6 -7 -6 -6 -8 -11 -12 -10 -12 -10 -11 -9 -7 -5 8 10 10 11 11